SKW3748 KSEA-CYVR

Flight info

Callsign SKW3748
Flight time N/A
Altitude 16000
Route PAE GRIZZ9
Aircraft CRJ9/M-SDFGIRWY/S

Departure

Time N/A
Airport Seattle–Tacoma International Airport (KSEA)

Arrival

Time 2026-05-03 21:26
Airport Vancouver International Airport (CYVR)
Time Latitude Longitude Altitude Speed Heading
2026-05-03 21:06 48.38507 -122.41295 16003 ft 388 kts 349°
2026-05-03 21:06 48.41154 -122.42078 16002 ft 388 kts 349°
2026-05-03 21:06 48.43805 -122.42854 16001 ft 388 kts 349°
2026-05-03 21:07 48.46460 -122.43638 16001 ft 389 kts 349°
2026-05-03 21:07 48.49115 -122.44415 16000 ft 389 kts 349°
2026-05-03 21:07 48.51771 -122.45207 16000 ft 389 kts 349°
2026-05-03 21:07 48.54389 -122.45970 15979 ft 374 kts 349°
2026-05-03 21:08 48.56891 -122.46713 15740 ft 359 kts 349°
2026-05-03 21:08 48.59305 -122.47430 15410 ft 349 kts 349°
2026-05-03 21:08 48.61667 -122.48130 14996 ft 343 kts 349°
2026-05-03 21:08 48.63959 -122.48807 14557 ft 338 kts 349°
2026-05-03 21:09 48.66245 -122.49496 14034 ft 335 kts 349°
2026-05-03 21:09 48.68518 -122.50164 13619 ft 331 kts 349°
2026-05-03 21:09 48.70672 -122.51286 13019 ft 329 kts 330°
2026-05-03 21:09 48.72448 -122.53447 12519 ft 328 kts 317°
2026-05-03 21:10 48.73991 -122.55987 12016 ft 327 kts 310°
2026-05-03 21:10 48.75369 -122.58705 11582 ft 323 kts 307°
2026-05-03 21:10 48.76624 -122.61375 11319 ft 310 kts 306°
2026-05-03 21:10 48.77869 -122.63987 10953 ft 302 kts 307°
2026-05-03 21:11 48.79122 -122.66505 10541 ft 296 kts 308°
2026-05-03 21:11 48.80378 -122.68949 10106 ft 293 kts 308°
2026-05-03 21:11 48.81635 -122.71363 9674 ft 290 kts 308°
2026-05-03 21:11 48.82873 -122.73765 9248 ft 287 kts 308°
2026-05-03 21:12 48.84100 -122.76155 8780 ft 287 kts 308°
2026-05-03 21:12 48.85319 -122.78534 8349 ft 285 kts 308°
2026-05-03 21:12 48.86522 -122.80890 8100 ft 276 kts 308°
2026-05-03 21:12 48.87675 -122.83147 8008 ft 266 kts 308°
2026-05-03 21:13 48.88784 -122.85332 7985 ft 256 kts 308°
2026-05-03 21:13 48.89844 -122.87420 7980 ft 250 kts 308°
2026-05-03 21:13 48.90904 -122.89505 7982 ft 249 kts 307°
2026-05-03 21:13 48.91952 -122.91606 7983 ft 250 kts 307°
2026-05-03 21:14 48.93008 -122.93713 7987 ft 251 kts 308°
2026-05-03 21:14 48.94080 -122.95823 7987 ft 252 kts 308°
2026-05-03 21:14 48.95155 -122.97948 7774 ft 254 kts 307°
2026-05-03 21:14 48.96345 -122.99908 7445 ft 253 kts 327°
2026-05-03 21:15 48.98014 -123.00590 7110 ft 252 kts
2026-05-03 21:15 48.99492 -122.99876 6791 ft 251 kts 29°
2026-05-03 21:15 49.00448 -122.98935 6556 ft 251 kts 36°
2026-05-03 21:15 49.01812 -122.97252 6186 ft 253 kts 41°
2026-05-03 21:16 49.03116 -122.95506 5816 ft 251 kts 41°
2026-05-03 21:16 49.04414 -122.93751 5439 ft 248 kts 40°
2026-05-03 21:16 49.05756 -122.92129 5064 ft 244 kts 36°
2026-05-03 21:16 49.07090 -122.90557 4668 ft 241 kts 47°
2026-05-03 21:17 49.07728 -122.88292 4404 ft 230 kts 82°
2026-05-03 21:17 49.07772 -122.86701 4257 ft 224 kts 90°
2026-05-03 21:17 49.07626 -122.83581 3918 ft 217 kts 96°
2026-05-03 21:17 49.07552 -122.81320 3641 ft 211 kts 81°
2026-05-03 21:18 49.08158 -122.79404 3401 ft 202 kts 47°
2026-05-03 21:18 49.09348 -122.78406 3173 ft 195 kts 12°
2026-05-03 21:18 49.10671 -122.78136 3057 ft 190 kts
2026-05-03 21:18 49.11972 -122.77916 2992 ft 186 kts
2026-05-03 21:19 49.13236 -122.77707 2972 ft 180 kts
2026-05-03 21:19 49.14480 -122.77501 2971 ft 181 kts
2026-05-03 21:19 49.15764 -122.77481 2957 ft 190 kts 346°
2026-05-03 21:19 49.16875 -122.78583 2978 ft 198 kts 309°
2026-05-03 21:20 49.17383 -122.80567 3000 ft 207 kts 280°
2026-05-03 21:20 49.17439 -122.82722 2971 ft 200 kts 266°
2026-05-03 21:20 49.17295 -122.84743 2956 ft 184 kts 261°
2026-05-03 21:20 49.17070 -122.86604 2969 ft 172 kts 261°
2026-05-03 21:21 49.16958 -122.88397 2970 ft 170 kts 268°
2026-05-03 21:21 49.16995 -122.90213 2995 ft 171 kts 275°
2026-05-03 21:21 49.17159 -122.91995 3006 ft 169 kts 280°
2026-05-03 21:21 49.17396 -122.93763 2848 ft 171 kts 283°
2026-05-03 21:22 49.17650 -122.95488 2620 ft 158 kts 283°
2026-05-03 21:22 49.17871 -122.97067 2394 ft 152 kts 282°
2026-05-03 21:22 49.18071 -122.98634 2206 ft 149 kts 281°
2026-05-03 21:22 49.18254 -123.00196 2035 ft 150 kts 280°
2026-05-03 21:23 49.18430 -123.01772 1918 ft 150 kts 281°
2026-05-03 21:23 49.18617 -123.03349 1744 ft 154 kts 281°
2026-05-03 21:23 49.18801 -123.04948 1591 ft 150 kts 281°
2026-05-03 21:23 49.18976 -123.06527 1351 ft 153 kts 281°
2026-05-03 21:24 49.19154 -123.08125 1085 ft 151 kts 281°
2026-05-03 21:24 49.19332 -123.09667 807 ft 145 kts 281°
2026-05-03 21:24 49.19494 -123.11162 593 ft 140 kts 281°
2026-05-03 21:24 49.19655 -123.12585 401 ft 137 kts 281°
2026-05-03 21:25 49.19823 -123.14033 251 ft 140 kts 281°
2026-05-03 21:25 49.19990 -123.15494 114 ft 138 kts 282°
2026-05-03 21:25 49.20152 -123.16908 23 ft 127 kts 281°
2026-05-03 21:25 49.20287 -123.18071 22 ft 91 kts 280°
2026-05-03 21:26 49.20380 -123.18893 22 ft 61 kts 280°
2026-05-03 21:26 49.20370 -123.19270 21 ft 27 kts 252°
2026-05-03 21:26 49.20312 -123.19516 21 ft 22 kts 250°
2026-05-03 21:26 49.20263 -123.19617 21 ft 4 kts 166°
2026-05-03 21:27 49.20244 -123.19567 21 ft 10 kts 101°
2026-05-03 21:27 49.20226 -123.19412 21 ft 19 kts 100°
2026-05-03 21:27 49.20202 -123.19208 21 ft 20 kts 99°
2026-05-03 21:27 49.20181 -123.19021 21 ft 15 kts 100°
2026-05-03 21:28 49.20165 -123.18884 21 ft 13 kts 99°
2026-05-03 21:28 49.20148 -123.18726 21 ft 18 kts 99°
2026-05-03 21:28 49.20122 -123.18504 21 ft 24 kts 100°
2026-05-03 21:28 49.20090 -123.18225 21 ft 29 kts 99°
2026-05-03 21:29 49.20055 -123.17917 21 ft 27 kts 99°
2026-05-03 21:29 49.20027 -123.17658 21 ft 22 kts 99°
2026-05-03 21:29 49.20003 -123.17446 21 ft 19 kts 99°
2026-05-03 21:29 49.19981 -123.17259 21 ft 17 kts 101°
2026-05-03 21:30 49.19960 -123.17146 21 ft 6 kts 138°
2026-05-03 21:30 49.19927 -123.17139 21 ft 7 kts 197°
2026-05-03 21:30 49.19858 -123.17179 21 ft 14 kts 196°
2026-05-03 21:30 49.19746 -123.17189 21 ft 18 kts 179°
2026-05-03 21:31 49.19662 -123.17212 21 ft 9 kts 225°
2026-05-03 21:31 49.19650 -123.17287 21 ft 9 kts 278°
2026-05-03 21:31 49.19646 -123.17422 21 ft 16 kts 250°
2026-05-03 21:31 49.19618 -123.17530 21 ft 4 kts 260°
2026-05-03 21:32 49.19624 -123.17560 21 ft 4 kts 319°
2026-05-03 21:32 49.19642 -123.17577 21 ft 0 kts 331°